Date,TemperatureHighF,TemperatureAvgF,TemperatureLowF,DewpointHighF,DewpointAvgF,DewpointLowF,HumidityHigh,HumidityAvg,HumidityLow,PressureMaxIn,PressureMinIn,WindSpeedMaxMPH,WindSpeedAvgMPH,GustSpeedMaxMPH,PrecipitationSumIn
2012-1-1,52.5,46.6,44.2,42.5,24.3,14.8,71,43,31,29.84,29.73,13,4,18,0.00
2012-1-2,44.2,34.7,24.8,21.2,8.3,-4.1,62,36,20,29.88,29.77,16,5,28,0.00
2012-1-3,31.5,23.8,16.7,10.1,-1.0,-12.3,54,35,17,30.16,29.85,14,4,21,0.00
2012-1-4,28.4,22.6,13.3,12.0,4.9,-3.5,68,47,38,30.17,30.09,5,2,11,0.00
2012-1-5,50.7,33.6,27.5,22.6,11.6,5.3,66,40,26,30.09,29.85,7,2,11,0.00
2012-1-6,67.5,51.7,37.0,28.0,22.2,12.1,62,34,12,29.87,29.74,11,2,14,0.00
2012-1-7,65.8,55.8,42.8,46.0,34.8,11.3,63,47,18,29.97,29.73,11,3,17,0.00
2012-1-8,59.4,43.2,32.5,31.0,22.0,9.3,68,47,16,30.20,29.96,5,1,8,0.00
2012-1-9,35.6,32.0,27.3,30.3,25.5,20.2,96,78,54,30.22,29.92,4,0,5,0.01
2012-1-10,55.2,37.8,26.8,41.1,29.1,23.2,99,76,33,29.97,29.88,8,1,13,0.06
2012-1-11,40.6,34.3,26.1,40.4,32.5,23.0,99,93,84,29.91,29.40,5,1,10,0.86
2012-1-12,64.2,47.9,36.1,52.7,43.3,35.4,99,85,53,29.43,29.25,7,1,13,0.11
2012-1-13,45.7,32.3,26.1,42.6,14.0,6.2,90,48,32,29.87,29.27,17,5,26,0.01
2012-1-14,39.4,30.2,25.0,17.3,10.4,5.2,69,44,26,30.02,29.87,10,2,15,0.00
2012-1-15,39.7,27.3,19.0,18.9,11.9,5.1,76,54,26,30.44,30.01,9,1,97,0.06
2012-1-16,46.4,31.2,14.9,30.2,19.1,9.4,82,62,36,30.44,30.07,8,1,10,0.00
2012-1-17,59.4,48.5,40.8,49.1,38.0,29.8,92,68,50,30.07,29.64,8,2,13,0.05
2012-1-18,56.5,38.4,21.4,49.0,17.3,-18.6,87,43,10,30.05,29.65,18,4,23,0.00
2012-1-19,42.6,28.8,15.4,20.0,12.4,5.6,77,53,24,30.09,29.83,8,1,12,0.00
2012-1-20,39.7,33.5,26.6,24.2,19.4,13.9,83,57,39,30.12,29.83,8,2,10,0.00
2012-1-21,32.4,30.1,26.6,30.6,27.9,22.2,95,91,83,30.14,29.78,2,0,3,0.17
2012-1-22,33.1,30.5,27.9,29.8,28.1,25.1,95,91,84,30.32,30.14,0,0,0,0.08
2012-1-23,42.4,35.4,31.1,42.2,34.2,29.6,99,95,94,30.22,29.81,2,0,4,0.08
2012-1-24,62.6,49.2,37.4,47.3,34.9,28.1,99,65,28,30.11,29.83,10,2,14,0.01
2012-1-25,59.4,41.9,27.5,37.4,31.8,23.4,92,69,38,30.25,30.07,4,1,7,0.00
2012-1-26,63.0,47.5,39.6,49.1,40.8,35.4,94,79,49,30.08,29.59,3,0,4,0.00
2012-1-27,68.0,54.5,39.2,59.3,42.6,25.6,99,68,36,29.91,29.39,17,3,23,0.40
2012-1-28,59.2,42.5,27.9,34.2,24.3,2.6,88,52,21,30.10,29.83,13,2,20,0.05
2012-1-29,50.5,39.3,30.2,24.1,6.2,-0.1,54,26,15,30.18,29.98,11,3,14,0.00
2012-1-30,56.3,39.4,24.6,24.5,13.2,-0.4,73,38,14,30.27,30.07,10,1,13,0.00
2012-1-31,71.8,54.4,30.0,30.4,19.8,9.4,74,30,10,30.14,30.00,9,2,14,0.00
2012-2-1,71.6,58.3,50.0,49.5,38.6,19.6,87,49,25,30.01,29.89,11,2,19,0.02
2012-2-2,63.0,55.5,48.2,50.0,36.9,20.8,99,60,22,29.99,29.85,13,4,19,0.06
2012-2-3,59.7,59.7,59.7,20.8,20.8,20.8,22,22,22,29.99,29.99,7,7,11,0.06
2012-2-4,59.7,36.4,27.7,32.9,30.2,20.8,92,79,22,30.23,29.98,7,1,11,0.00
2012-2-5,43.5,35.0,25.7,33.9,30.6,23.0,92,84,67,30.14,29.94,4,1,6,0.01
2012-2-6,56.1,38.2,24.1,37.8,28.9,22.1,98,73,35,30.15,29.97,8,1,9,0.01
2012-2-7,63.9,47.3,34.5,34.6,23.1,11.8,66,43,13,30.10,29.97,12,2,17,0.00
2012-2-8,41.0,36.2,29.7,34.5,28.7,22.5,95,75,58,30.13,29.28,4,1,10,0.02
2012-2-9,54.1,40.5,32.7,26.7,18.4,5.8,65,44,15,30.15,29.33,11,2,15,0.01
2012-2-10,49.5,40.0,27.7,32.0,26.5,20.0,77,59,41,30.07,29.16,7,1,9,0.00
2012-2-11,44.8,40.2,20.1,30.9,22.8,-8.0,62,51,20,29.87,29.16,23,3,33,0.07
2012-2-12,44.8,35.7,16.3,30.9,11.8,-15.7,58,40,17,30.00,29.84,15,3,24,0.00
2012-2-13,44.8,39.7,34.0,30.9,13.9,-5.0,58,39,18,29.95,29.87,4,2,14,0.00
2012-2-14,57.2,44.9,34.0,35.6,23.3,-5.0,73,45,18,29.95,29.81,6,1,14,0.00
2012-2-15,64.4,45.9,41.0,35.8,30.7,17.2,77,61,18,30.18,29.91,4,0,6,0.00
2012-2-16,44.6,41.8,40.1,43.9,37.9,29.6,99,87,61,30.17,29.89,2,0,3,0.26
2012-2-17,60.6,47.6,37.6,45.4,31.3,20.9,99,58,25,30.01,29.89,11,2,14,0.00
2012-2-18,64.4,49.6,33.6,29.7,21.7,11.9,70,37,15,30.00,29.80,9,2,14,0.00
2012-2-19,47.7,35.5,30.4,30.1,25.2,18.3,98,69,44,29.98,29.77,7,2,9,0.00
2012-2-20,57.0,36.7,25.2,34.6,24.4,13.8,99,68,20,30.22,29.86,7,0,14,0.00
2012-2-21,53.4,36.0,20.7,31.7,26.1,18.7,92,70,39,30.22,29.77,8,1,11,0.00
2012-2-22,68.9,49.1,30.6,44.1,35.0,23.8,92,63,21,29.77,29.39,11,2,16,0.00
2012-2-23,68.9,54.3,41.2,45.8,41.6,37.9,90,65,35,29.52,29.39,10,2,15,0.00
2012-2-24,81.0,52.3,38.8,60.4,41.6,-8.6,98,70,32,29.67,29.25,17,3,25,0.11
2012-2-25,46.0,36.8,30.6,25.8,11.1,-3.4,61,36,18,30.20,29.66,15,6,24,0.00
2012-2-26,56.7,42.7,27.3,14.1,8.3,4.1,47,27,13,30.36,30.20,10,2,14,0.05
2012-2-27,71.1,44.6,23.2,35.3,23.7,11.0,81,51,10,30.27,30.07,7,1,10,0.00
2012-2-28,68.2,51.3,36.9,35.1,16.1,3.7,73,29,10,30.32,30.17,8,1,11,0.00
2012-2-29,57.2,45.7,34.0,53.5,41.7,23.5,99,86,58,30.18,29.57,9,1,13,1.00
2012-3-1,71.8,60.0,46.0,55.5,30.6,10.4,98,41,10,29.86,29.54,16,4,24,0.01
2012-3-2,50.5,41.9,32.0,43.0,37.5,28.6,99,85,63,29.94,29.58,7,1,8,0.38
2012-3-3,63.7,49.8,42.1,52.7,29.5,5.7,99,55,14,29.65,29.44,14,2,22,0.05
2012-3-4,50.7,41.6,33.1,24.2,16.3,5.8,58,37,19,29.82,29.56,11,3,16,0.00
2012-3-5,45.9,34.2,27.3,38.7,21.6,9.4,94,62,25,30.36,29.80,11,2,14,0.17
2012-3-6,57.2,37.5,21.2,23.7,16.9,9.7,81,49,17,30.54,30.35,5,1,8,0.00
2012-3-7,72.9,51.7,31.6,43.9,32.2,19.2,71,49,24,30.45,30.26,7,1,11,0.00
2012-3-8,71.8,60.4,50.0,52.5,47.7,42.1,87,64,43,30.26,29.91,14,2,19,0.00
2012-3-9,64.6,53.3,39.4,51.3,23.8,7.0,69,36,11,30.25,29.91,14,4,18,0.00
2012-3-10,59.2,41.4,27.9,22.2,13.7,2.5,65,37,12,30.41,30.25,5,1,8,0.00
2012-3-11,71.2,46.7,25.3,30.7,21.3,10.4,83,46,10,30.43,30.26,5,1,11,0.00
2012-3-12,79.0,56.3,33.6,51.0,37.2,17.5,82,54,12,30.29,30.05,6,1,9,0.01
2012-3-13,86.0,66.6,50.9,55.8,49.3,42.6,91,58,26,30.05,29.89,8,1,12,0.00
2012-3-14,89.2,68.5,47.1,51.6,38.9,19.1,92,43,10,30.11,29.99,8,2,49,0.00
2012-3-15,84.9,63.7,45.7,51.4,45.2,35.8,87,55,20,30.12,30.01,13,2,18,0.00
2012-3-16,80.2,63.2,51.4,56.3,51.2,46.5,89,67,38,30.09,29.99,4,1,8,0.00
2012-3-17,80.4,62.3,46.6,59.0,51.7,46.3,99,72,38,30.19,30.07,7,1,9,0.43
2012-3-18,74.7,60.5,50.0,57.6,53.6,48.2,98,79,54,30.24,30.08,5,1,13,0.00
2012-3-19,84.2,66.3,52.0,57.8,53.9,50.1,98,68,34,30.10,29.99,5,1,8,0.00
2012-3-20,81.3,63.0,50.9,63.1,57.7,50.6,99,85,51,30.15,30.05,4,1,8,0.13
2012-3-21,75.2,63.6,56.1,63.4,59.6,55.9,99,88,64,30.22,30.09,4,1,6,0.01
2012-3-22,87.6,66.8,54.5,67.4,58.7,53.7,99,79,40,30.17,29.97,5,1,9,0.01
2012-3-23,86.7,68.6,52.2,63.1,57.6,51.4,99,72,37,30.01,29.82,7,1,8,0.06
2012-3-24,76.1,63.8,54.7,64.2,58.4,53.1,99,84,49,29.82,29.70,9,1,14,1.20
2012-3-25,65.1,56.4,52.0,58.8,54.4,51.4,99,93,77,29.73,27.40,7,1,11,0.60
2012-3-26,70.9,59.4,44.1,54.6,31.0,5.5,82,40,10,30.11,29.71,15,4,24,0.01
2012-3-27,68.2,47.4,31.6,31.4,14.1,-0.4,65,30,10,30.24,30.09,8,2,11,0.00
2012-3-28,89.2,60.7,39.4,57.2,41.8,26.8,93,55,19,30.09,29.58,14,2,27,0.13
2012-3-29,80.1,66.2,47.8,50.5,34.2,16.3,68,33,10,29.92,29.65,11,3,16,0.06
2012-3-30,68.0,51.7,36.7,45.3,39.4,32.3,94,65,40,30.01,29.75,4,1,5,0.00
2012-3-31,80.1,60.8,47.8,56.7,48.2,37.6,91,67,23,29.77,29.57,9,2,13,0.00
2012-4-1,77.5,57.5,46.9,51.9,47.2,44.2,97,71,35,29.81,29.47,8,1,14,0.06
2012-4-2,72.5,60.2,41.7,53.6,36.0,10.3,81,46,10,29.86,29.44,11,3,17,0.00
2012-4-3,85.8,56.1,33.1,47.6,37.9,27.8,95,59,18,29.95,29.68,6,1,8,0.00
2012-4-4,86.5,68.4,53.1,58.8,51.7,45.6,85,57,29,29.70,29.46,11,2,17,0.00
2012-4-5,66.6,52.4,39.0,47.7,33.1,23.2,92,50,25,29.80,29.59,6,1,8,0.01
2012-4-6,66.6,48.8,32.9,37.5,23.5,7.5,97,50,11,30.00,29.78,9,2,14,0.05
2012-4-7,75.4,54.9,34.2,27.0,12.5,3.0,59,21,10,30.14,29.97,8,2,13,0.00
2012-4-8,79.9,58.5,38.1,34.9,21.7,9.4,67,30,10,30.03,29.74,11,2,18,0.05
2012-4-9,73.6,60.7,47.3,35.9,17.7,9.7,45,21,10,29.89,29.65,14,3,22,0.19
2012-4-10,70.7,55.8,36.9,37.2,19.2,5.3,89,34,10,29.77,29.59,14,4,24,0.00
2012-4-11,54.7,45.1,39.0,27.9,22.9,16.2,64,42,25,30.00,29.77,11,4,16,0.00
2012-4-12,65.5,47.2,32.5,33.8,26.8,14.3,80,51,14,30.10,29.99,9,2,14,0.19
2012-4-13,77.4,53.0,36.5,45.6,29.1,10.8,89,51,10,30.17,30.08,4,1,7,0.00
2012-4-14,84.6,59.3,35.2,46.1,37.5,24.1,93,53,12,30.15,29.98,6,0,8,0.01
2012-4-15,92.5,72.3,53.8,59.3,50.4,44.6,76,49,23,30.02,29.91,4,1,9,0.01
2012-4-16,93.0,75.7,59.9,63.3,59.1,56.1,89,60,33,29.97,29.85,5,1,10,0.00
2012-4-17,79.2,68.2,57.0,59.5,47.5,31.9,82,49,23,30.12,29.91,9,1,12,0.01
2012-4-18,57.2,50.3,37.0,50.8,47.8,-14.4,99,92,10,30.19,30.03,2,0,4,0.53
2012-4-19,76.8,56.1,47.5,55.2,49.8,47.2,99,82,41,30.04,26.92,4,0,24,0.00
2012-4-20,79.5,57.2,41.5,57.3,49.6,41.3,99,80,41,29.94,29.73,4,0,5,0.53
2012-4-21,85.3,61.6,47.5,63.8,54.7,47.2,99,83,32,29.73,29.54,13,0,21,0.09
2012-4-22,55.2,50.0,45.1,53.8,48.1,-1.9,99,93,10,29.68,29.38,8,1,13,0.40
2012-4-23,48.2,43.8,41.2,43.3,37.6,22.5,98,81,38,29.49,29.28,8,1,11,0.20
2012-4-24,66.2,49.9,32.0,43.1,22.4,5.3,97,43,11,29.65,29.45,12,2,18,0.02
2012-4-25,79.0,57.2,35.8,44.6,31.7,12.2,88,46,10,29.78,29.65,7,1,10,0.00
2012-4-26,71.2,61.7,51.8,62.3,54.7,43.8,99,79,61,29.76,29.53,10,1,17,0.38
2012-4-27,75.2,62.8,49.6,52.5,32.8,10.1,77,38,10,29.95,29.64,8,2,11,0.01
2012-4-28,61.5,61.5,61.5,26.3,26.3,26.3,26,26,26,29.95,29.95,1,1,2,0.01
2012-4-29,61.5,61.5,61.5,26.3,26.3,26.3,26,26,26,29.95,29.95,1,1,2,0.01
2012-4-30,61.5,61.5,61.5,26.3,26.3,26.3,26,26,26,29.95,29.95,1,1,2,0.01
2012-5-1,61.5,61.5,61.5,26.3,26.3,26.3,26,26,26,29.95,29.95,1,1,2,0.01
2012-5-2,75.0,62.6,61.5,66.6,31.7,26.3,94,34,26,29.97,29.94,2,1,2,2.57
2012-5-3,93.2,72.7,62.8,71.6,66.5,61.9,99,83,45,30.06,29.92,3,0,4,0.11
2012-5-4,84.6,71.1,59.9,68.8,64.1,54.9,99,81,46,29.96,29.80,7,0,9,0.07
2012-5-5,79.7,67.9,59.4,71.0,64.4,6.5,99,90,10,29.87,29.76,2,0,4,0.09
2012-5-6,71.8,64.8,61.3,64.3,62.0,6.5,99,91,71,29.99,29.86,4,0,7,0.05
2012-5-7,68.7,63.4,60.3,62.1,59.2,53.1,95,87,73,30.01,29.89,3,0,5,0.00
2012-5-8,72.0,63.4,56.3,66.9,59.7,51.4,98,88,72,29.94,29.72,4,0,7,0.04
2012-5-9,77.4,64.7,53.6,65.8,58.0,50.8,99,82,46,29.73,29.59,4,1,7,0.09
2012-5-10,73.0,60.5,48.6,52.0,41.2,26.8,92,54,18,29.89,29.58,10,2,18,0.02
2012-5-11,82.9,60.9,42.1,49.2,37.6,19.5,95,52,11,30.11,29.89,6,1,11,0.21
2012-5-12,82.4,61.6,42.3,54.6,46.5,39.0,99,65,25,30.23,30.10,4,0,5,0.20
2012-5-13,85.5,67.4,52.3,60.0,55.6,50.7,96,69,40,30.13,30.01,4,0,8,0.20
2012-5-14,65.1,61.7,59.7,64.1,61.0,58.5,99,97,94,30.04,29.89,2,0,3,0.79
2012-5-15,89.6,70.2,61.9,73.7,64.6,61.3,99,84,47,29.90,29.80,4,0,8,0.60
2012-5-16,88.7,71.1,57.2,73.0,59.2,49.9,99,72,30,29.88,29.78,4,0,6,0.15
2012-5-17,79.5,66.6,54.7,65.3,55.7,49.7,99,72,42,30.03,29.84,4,1,8,0.35
2012-5-18,80.1,62.5,47.3,59.3,49.7,43.3,99,68,31,30.09,30.01,5,1,9,0.02
2012-5-19,85.6,64.6,46.2,58.1,51.3,44.8,99,69,30,30.10,30.01,5,0,6,0.18
2012-5-20,84.2,66.8,49.8,63.6,54.9,49.6,99,70,37,30.08,29.97,7,1,13,0.15
2012-5-21,81.3,67.8,61.5,68.6,62.8,56.7,98,85,61,29.97,29.79,4,0,6,0.04
2012-5-22,88.2,69.1,59.2,68.5,62.9,58.9,99,83,44,29.81,29.69,3,0,7,0.11
2012-5-23,86.5,70.2,61.9,70.3,63.7,60.9,99,82,45,29.87,29.75,4,0,5,0.14
2012-5-24,82.0,68.9,61.9,68.8,64.3,61.3,99,86,58,29.99,29.86,4,0,5,0.18
2012-5-25,93.4,75.6,61.3,73.9,65.9,60.8,99,76,39,30.05,29.98,4,0,7,0.17
2012-5-26,95.0,77.6,62.6,74.7,67.9,61.8,99,75,43,30.07,29.99,3,0,4,0.43
2012-5-27,95.4,77.8,63.7,73.9,67.0,62.8,99,73,41,30.06,29.95,3,0,4,0.17
2012-5-28,98.8,80.4,64.2,75.2,68.6,63.4,99,72,40,30.04,29.85,3,0,5,0.38
2012-5-29,95.4,78.5,65.8,74.2,67.8,62.7,99,74,41,29.89,29.66,11,1,17,0.44
2012-5-30,90.7,74.1,64.2,70.7,62.9,54.9,99,73,32,29.75,29.63,3,0,5,0.24
2012-5-31,93.2,75.9,61.5,65.1,59.4,49.8,93,61,28,29.80,29.67,4,0,6,0.14
2012-6-1,83.3,67.3,60.8,73.8,64.1,55.1,97,90,67,29.81,29.55,10,0,17,0.40
2012-6-2,79.9,64.3,53.2,55.4,48.2,39.9,93,60,25,29.79,29.67,8,1,10,0.19
2012-6-3,83.5,67.3,52.0,55.4,49.7,44.5,87,57,28,29.81,29.65,8,1,10,0.21
2012-6-4,83.3,66.3,54.1,63.3,52.9,44.7,94,67,29,29.70,29.56,8,1,9,0.32
2012-6-5,73.6,59.6,50.2,59.7,53.9,49.9,99,83,52,29.87,29.67,4,0,8,0.09
2012-6-6,73.4,60.6,54.9,60.8,56.1,54.0,99,86,57,29.95,29.86,3,0,5,0.05
2012-6-7,81.7,66.7,52.7,63.0,55.3,48.6,99,71,38,29.96,29.86,4,0,7,0.00
2012-6-8,87.8,70.0,53.2,58.6,53.2,46.8,93,61,25,29.97,29.85,4,1,8,0.08
2012-6-9,89.8,72.4,54.9,62.9,55.9,47.2,92,62,24,29.95,29.86,4,0,7,0.19
2012-6-10,89.8,73.6,56.5,67.2,60.8,55.2,96,69,33,30.04,29.93,3,0,4,0.13
2012-6-11,75.0,67.0,58.1,70.1,64.5,57.3,99,92,74,30.05,29.95,2,0,4,0.35
2012-6-12,84.2,71.6,66.7,76.8,69.6,66.4,99,94,73,29.95,29.73,3,0,4,0.72
2012-6-13,85.5,71.9,55.4,68.0,59.0,45.4,99,69,29,29.99,29.77,4,1,10,0.01
2012-6-14,82.4,66.4,50.7,64.5,57.8,49.8,99,76,50,30.10,29.98,6,0,8,0.09
2012-6-15,82.6,69.8,59.7,64.2,59.5,54.1,96,72,42,30.19,30.10,5,1,8,0.00
2012-6-16,81.3,66.2,51.6,63.2,56.4,51.3,99,74,44,30.24,30.09,4,0,7,0.13
2012-6-17,81.9,68.0,52.2,64.5,56.7,50.0,99,71,38,30.12,27.58,4,0,4,0.00
2012-6-18,72.9,65.3,60.1,66.7,61.7,56.9,97,88,72,30.01,29.93,2,0,4,0.12
2012-6-19,91.9,74.6,64.9,75.1,68.5,64.6,99,84,46,30.06,30.00,4,0,8,0.50
2012-6-20,97.2,79.5,64.0,78.2,68.6,63.2,99,74,39,30.07,29.95,4,0,8,0.06
2012-6-21,96.1,80.3,67.5,76.6,69.6,66.5,98,73,42,29.95,29.79,8,0,11,0.00
2012-6-22,92.3,78.6,66.2,74.2,68.1,62.0,98,72,41,29.82,29.69,11,1,16,0.51
2012-6-23,90.5,75.6,63.1,73.8,63.8,54.6,99,72,32,29.95,29.79,4,0,5,0.05
2012-6-24,90.7,75.1,62.1,71.0,65.7,59.9,96,75,46,29.95,29.81,4,0,7,0.09
2012-6-25,90.0,76.8,65.8,71.5,61.5,46.5,98,64,33,29.81,29.62,8,1,14,0.61
2012-6-26,83.1,69.1,54.9,52.4,47.4,42.6,77,48,29,29.85,29.74,9,2,14,0.08
2012-6-27,89.1,71.9,55.9,60.6,53.0,48.1,80,55,29,29.91,29.80,5,1,8,0.22
2012-6-28,95.7,76.8,57.0,66.8,60.4,52.4,93,62,28,29.88,29.69,49,1,49,0.32
2012-6-29,104.4,87.7,70.0,77.5,70.5,62.1,84,59,36,29.73,29.61,12,0,19,0.21
2012-6-30,100.2,81.8,65.5,72.9,66.4,61.1,88,64,34,29.80,29.65,2,0,4,0.00
2012-7-1,97.2,82.5,69.4,75.4,69.3,65.2,96,68,40,29.84,29.71,4,1,8,0.09
2012-7-2,95.7,81.3,69.3,70.8,65.7,58.8,88,62,37,29.90,29.79,12,1,17,0.05
2012-7-3,97.7,78.8,65.1,74.6,67.5,63.4,98,73,34,29.91,29.80,4,0,6,0.08
2012-7-4,99.9,81.0,69.4,74.2,69.6,63.6,95,71,39,29.87,29.76,16,1,34,0.66
2012-7-5,101.5,87.3,71.4,75.0,70.2,64.6,95,61,33,29.82,29.73,4,1,9,0.04
2012-7-6,99.0,84.6,71.6,77.0,71.4,64.3,90,67,40,29.88,29.79,3,0,6,0.40
2012-7-7,102.7,86.4,72.0,79.4,73.5,68.7,96,70,35,29.88,29.76,5,0,6,0.02
2012-7-8,104.2,84.9,71.4,75.4,71.0,62.9,96,67,36,29.82,29.71,17,1,21,0.28
2012-7-9,86.7,75.4,70.9,76.6,72.2,69.8,98,90,62,29.91,29.77,4,0,7,0.13
2012-7-10,90.0,76.2,68.4,74.1,69.0,66.0,99,80,50,29.97,29.86,4,0,6,0.04
2012-7-11,86.4,74.1,65.5,71.3,66.3,63.6,99,79,51,30.07,29.96,4,0,8,0.02
2012-7-12,89.4,74.8,63.5,68.8,62.7,53.4,97,70,32,30.11,30.05,4,0,6,0.09
2012-7-13,82.8,73.3,66.2,66.7,62.7,55.9,91,71,42,30.14,30.07,3,0,5,0.19
2012-7-14,91.8,74.6,65.8,74.8,69.1,63.5,97,84,56,30.11,30.01,5,0,7,0.54
2012-7-15,94.3,76.9,69.6,79.5,71.8,69.1,99,86,50,30.07,29.92,4,0,7,0.39
2012-7-16,96.8,79.8,70.7,75.9,71.1,67.9,96,77,43,29.97,29.78,4,0,7,0.11
2012-7-17,99.7,82.9,68.7,72.9,68.3,62.8,94,66,32,29.86,29.75,4,0,6,0.04
2012-7-18,98.1,80.4,69.8,78.9,71.3,66.3,92,76,44,29.86,29.76,10,1,15,0.27
2012-7-19,96.8,80.6,69.3,74.0,69.5,64.7,95,72,41,29.89,29.76,6,1,9,0.00
2012-7-20,78.3,75.0,70.0,74.6,71.4,66.9,97,89,71,29.85,29.76,8,0,13,0.20
2012-7-21,74.5,69.7,66.9,72.0,68.1,65.7,99,95,85,30.04,29.84,5,1,8,0.57
2012-7-22,85.3,73.8,66.2,74.2,69.6,65.9,99,88,67,30.10,30.01,3,0,4,0.00
2012-7-23,93.4,76.1,67.8,79.2,70.8,64.9,99,86,47,30.04,29.87,6,0,11,0.37
2012-7-24,96.3,78.4,70.0,76.1,71.4,67.3,97,81,49,29.87,29.70,8,1,14,0.47
2012-7-25,89.4,76.8,64.2,72.4,67.0,62.9,99,75,44,29.90,29.76,4,0,5,0.12
2012-7-26,100.0,83.1,66.9,76.2,70.5,63.6,99,70,40,29.79,29.61,9,1,14,0.00
2012-7-27,92.8,78.7,66.4,72.6,66.6,62.1,97,68,48,29.83,29.68,11,1,16,0.12
2012-7-28,93.6,79.8,66.6,73.4,66.5,59.7,99,68,37,29.87,29.78,6,1,11,0.18
2012-7-29,91.6,78.5,66.2,68.5,64.3,61.3,91,63,40,29.94,29.85,10,1,14,0.00
2012-7-30,89.4,74.7,64.2,73.3,67.1,63.4,99,79,47,29.98,29.87,6,0,11,0.11
2012-7-31,91.0,75.0,65.7,76.2,68.3,62.8,99,82,49,29.94,29.77,8,1,14,0.30
2012-8-1,91.4,74.5,63.3,74.1,67.6,62.5,99,81,48,29.88,29.73,3,0,4,0.08
2012-8-2,94.3,79.1,64.9,74.8,69.3,64.7,99,76,43,29.85,29.76,3,0,5,0.07
2012-8-3,94.1,78.2,67.1,75.8,70.6,66.5,99,79,50,29.98,29.84,5,0,8,0.01
2012-8-4,71.4,70.8,70.3,68.0,67.8,67.3,91,90,89,29.99,29.98,2,0,2,0.00
2012-8-5,94.3,79.0,70.9,75.7,72.1,69.4,95,81,50,30.07,29.96,5,1,9,0.08
2012-8-6,86.7,77.0,71.2,74.9,71.4,67.0,95,84,64,30.00,29.90,5,0,8,0.17
2012-8-7,90.1,77.9,69.8,76.1,71.1,68.4,98,82,49,29.93,29.85,3,0,4,0.07
2012-8-8,94.5,78.4,68.7,77.0,70.0,62.3,99,79,36,29.91,29.84,3,0,4,0.00
2012-8-9,96.1,78.9,64.0,73.5,68.4,63.2,99,74,40,29.89,29.73,3,0,12,0.05
2012-8-10,88.0,73.5,66.9,75.0,69.7,66.4,99,89,57,29.75,29.65,5,0,8,1.56
2012-8-11,88.3,74.2,66.4,70.3,66.8,63.9,99,81,45,29.83,29.71,4,0,7,0.07
2012-8-12,88.2,73.5,61.3,66.4,62.4,57.6,98,72,39,29.93,29.82,6,1,8,0.00
2012-8-13,90.0,73.2,59.2,68.7,63.6,58.9,99,76,41,29.98,29.85,3,0,6,0.08
2012-8-14,91.4,75.8,67.1,72.8,67.5,64.0,99,78,44,29.86,29.72,4,0,5,0.13
2012-8-15,83.7,69.8,62.8,73.0,66.7,61.9,99,91,61,29.88,29.75,11,0,17,0.30
2012-8-16,89.2,73.2,61.9,67.8,63.1,57.9,98,75,37,29.94,29.82,4,0,5,0.01
2012-8-17,91.8,72.9,59.5,72.0,65.3,59.3,99,80,42,29.86,29.70,7,0,12,0.01
2012-8-18,87.6,73.3,62.6,66.3,61.5,55.1,93,69,42,29.85,29.76,4,1,7,0.06
2012-8-19,69.4,64.8,61.3,67.9,63.6,60.6,99,96,90,29.89,29.79,2,0,4,0.38
2012-8-20,80.8,67.6,61.2,70.2,63.7,58.3,99,88,59,29.89,29.76,11,0,15,0.00
2012-8-21,84.6,68.9,59.5,68.4,62.4,59.3,99,82,48,30.01,29.88,6,0,7,0.06
2012-8-22,86.5,69.0,59.4,70.4,63.0,59.0,99,83,50,30.07,29.99,8,0,9,0.02
2012-8-23,87.4,72.3,60.8,69.5,64.2,59.6,99,79,41,30.08,30.01,4,0,6,0.02
2012-8-24,83.3,71.6,61.9,70.7,64.4,59.9,99,80,48,30.09,30.03,12,0,12,0.00
2012-8-25,72.0,66.9,64.2,68.2,64.8,63.4,99,93,76,30.10,30.02,4,0,11,1.23
2012-8-26,80.1,69.9,64.9,72.4,67.4,64.7,99,92,70,30.10,30.01,4,0,7,0.34
2012-8-27,90.3,73.7,62.1,74.6,66.8,61.5,99,82,48,30.08,29.90,4,0,5,0.06
2012-8-28,91.6,74.9,64.0,73.7,68.4,63.2,99,82,49,29.90,29.81,4,0,5,0.00
2012-8-29,88.7,72.5,59.5,68.7,64.0,59.3,99,78,45,29.94,29.85,4,0,7,0.00
2012-8-30,87.3,73.1,61.9,73.1,67.0,61.1,99,83,54,30.04,29.93,4,0,4,0.00
2012-8-31,96.3,77.2,63.0,75.0,68.0,61.9,99,78,41,30.06,29.59,5,0,7,0.00
2012-9-1,83.3,76.1,69.4,75.6,71.4,66.7,95,86,68,30.05,29.93,6,0,11,0.14
2012-9-2,84.7,75.3,70.7,76.9,72.2,69.4,98,90,68,29.96,29.87,3,0,5,0.31
2012-9-3,77.5,73.2,70.3,73.4,71.2,69.2,98,93,85,29.97,29.88,2,0,3,0.05
2012-9-4,83.8,74.4,68.7,77.5,71.8,68.5,99,92,76,29.93,29.79,4,0,7,0.12
2012-9-5,87.6,74.9,70.0,78.7,72.8,69.4,98,93,71,29.80,29.72,3,0,5,0.35
2012-9-6,85.8,73.3,67.1,74.4,70.2,66.8,99,91,62,29.88,29.73,2,0,4,0.66
2012-9-7,90.5,75.0,64.4,75.7,69.3,64.1,99,85,52,29.87,29.75,4,0,6,0.00
2012-9-8,86.7,70.4,63.3,75.4,66.4,56.4,99,88,60,29.78,29.53,12,1,21,0.09
2012-9-9,80.2,66.6,55.9,56.7,52.2,48.1,87,62,38,29.91,29.75,8,2,11,0.00
2012-9-10,79.9,62.6,51.4,57.6,50.6,-2.9,99,70,30,30.11,29.91,8,1,11,0.00
2012-9-11,79.9,60.9,47.3,56.5,51.1,-6.1,99,75,10,30.23,30.11,97,1,5,0.00
2012-9-12,81.9,62.8,48.4,62.2,55.0,48.1,99,79,42,30.27,30.20,4,0,6,0.00
2012-9-13,82.2,63.1,49.6,62.6,53.9,49.4,99,77,38,30.29,30.17,4,0,5,0.00
2012-9-14,82.2,64.1,50.5,64.8,57.5,50.3,99,82,49,30.20,30.04,4,0,5,0.00
2012-9-15,79.2,64.8,52.2,60.4,52.5,44.1,98,69,31,30.16,30.04,5,1,8,0.00
2012-9-16,73.6,60.1,50.4,60.5,54.1,49.3,98,82,54,30.09,29.99,3,0,4,0.00
2012-9-17,67.3,60.1,50.9,62.8,58.3,50.6,99,94,82,30.03,29.85,3,0,4,0.14
2012-9-18,72.0,66.7,63.0,70.8,66.2,62.1,99,98,93,29.85,29.53,7,1,12,1.00
2012-9-19,75.2,62.8,51.1,62.7,49.6,4.1,95,64,37,30.08,29.75,8,1,11,0.02
2012-9-20,77.0,60.1,47.7,57.8,53.1,47.1,99,80,50,30.09,29.95,4,0,6,0.00
2012-9-21,82.9,63.6,49.5,67.6,57.6,49.2,99,83,48,29.99,29.85,4,0,5,0.00
2012-9-22,86.7,69.0,57.0,66.7,59.1,47.2,99,74,38,29.86,29.71,9,1,16,0.05
2012-9-23,72.5,59.8,48.2,48.1,40.9,26.9,85,53,19,30.08,29.85,98,1,98,0.04
2012-9-24,73.2,56.3,44.2,47.7,42.7,29.7,92,66,24,30.15,30.03,8,1,12,0.01
2012-9-25,78.3,56.2,40.3,54.8,48.3,40.0,99,79,42,30.10,29.99,97,0,97,0.00
2012-9-26,86.0,66.1,51.1,64.9,58.0,50.8,99,79,43,30.06,29.97,6,1,11,0.00
2012-9-27,86.0,70.2,59.0,68.0,62.9,57.9,98,80,49,30.08,29.95,4,0,5,0.06
2012-9-28,76.5,66.6,60.6,70.3,64.1,60.0,99,92,72,30.00,29.86,4,0,6,0.07
2012-9-29,72.1,62.1,55.6,60.1,56.3,48.8,99,83,55,29.94,29.81,4,0,5,0.01
2012-9-30,76.1,59.6,46.9,55.0,50.2,44.8,99,75,36,29.87,29.63,6,1,8,0.00
2012-10-1,63.9,56.1,48.4,56.6,52.3,48.0,99,88,63,29.89,29.80,4,0,4,0.02
2012-10-2,67.1,61.4,56.3,66.0,60.8,55.6,99,98,96,29.86,29.79,2,0,12,0.61
2012-10-3,81.0,70.4,64.2,73.8,67.4,63.4,99,91,71,30.03,29.86,2,0,97,0.06
2012-10-4,82.6,68.9,57.2,66.8,61.3,8.9,98,79,42,30.09,30.01,97,1,97,0.01
2012-10-5,82.6,66.2,55.8,58.8,55.3,52.2,94,71,41,30.08,29.88,8,1,9,0.00
2012-10-6,78.6,63.3,53.6,63.9,52.3,33.8,98,71,42,29.93,29.77,11,2,18,0.00
2012-10-7,55.8,48.7,42.4,46.5,43.9,34.0,99,84,44,30.08,29.90,7,0,13,0.08
2012-10-8,50.5,43.8,38.1,47.0,41.4,37.9,99,92,71,30.18,30.07,6,0,7,0.06
2012-10-9,61.7,51.0,43.2,51.5,46.8,42.6,99,87,64,30.11,29.96,4,0,8,0.09
2012-10-10,71.6,57.0,43.5,51.9,46.0,35.1,99,71,41,30.01,29.81,12,2,21,0.00
2012-10-11,63.7,55.9,42.3,36.3,32.2,28.4,66,42,29,30.20,30.01,9,2,14,0.00
2012-10-12,63.7,63.7,63.7,31.7,31.7,31.7,30,30,30,30.15,30.15,2,2,3,0.00
2012-10-13,63.7,63.7,63.7,31.7,31.7,31.7,30,30,30,30.15,30.15,2,2,3,0.00
2012-10-14,74.8,65.8,63.1,56.5,42.3,31.7,75,45,30,30.15,29.85,5,1,7,0.05
2012-10-15,72.9,64.0,55.4,66.2,54.3,37.7,92,73,42,29.85,29.58,10,1,18,0.13
2012-10-16,70.9,54.7,43.0,43.3,40.8,37.8,92,63,32,29.84,29.74,8,1,11,0.00
2012-10-17,72.7,51.6,37.4,50.8,44.1,37.1,99,79,39,29.90,29.78,4,0,4,0.00
2012-10-18,63.7,54.2,43.5,57.8,51.1,42.5,98,90,75,29.83,29.68,4,0,8,0.38
2012-10-19,74.5,60.5,48.7,65.7,53.2,41.1,99,81,36,29.69,29.54,4,0,8,0.02
2012-10-20,66.0,55.2,46.8,45.7,39.7,34.5,83,58,34,29.84,29.58,11,2,17,0.00
2012-10-21,68.9,53.1,41.4,43.4,38.7,35.4,90,61,33,30.04,29.84,8,1,10,0.00
2012-10-22,76.3,52.6,35.8,48.7,42.3,34.2,99,73,32,30.13,30.01,4,0,49,0.00
2012-10-23,84.7,61.1,43.9,59.5,50.6,43.4,98,73,37,30.05,29.92,3,0,4,0.22
2012-10-24,84.7,65.1,50.9,60.1,52.1,46.5,94,68,28,30.05,29.96,5,1,6,0.00
2012-10-25,78.1,61.8,48.2,60.1,54.6,47.4,98,79,50,30.09,30.00,7,1,8,0.00
2012-10-26,66.7,61.1,56.3,59.2,57.2,54.3,95,87,73,30.09,29.94,4,1,6,0.00
2012-10-27,68.7,60.7,56.1,59.0,54.3,48.6,97,81,58,29.94,29.74,7,2,10,0.02
2012-10-28,63.7,56.5,50.9,51.9,49.1,44.5,94,77,60,29.75,29.52,9,1,14,0.12
2012-10-29,51.1,45.7,41.4,48.1,41.2,37.2,90,84,78,29.52,28.85,25,7,39,2.66
2012-10-30,43.0,39.6,36.0,37.6,34.0,32.3,90,80,67,29.36,28.84,9,3,99,0.32
2012-10-31,54.7,45.4,42.1,37.2,32.4,30.6,70,60,48,29.58,29.34,11,3,16,0.00
2012-11-1,55.6,46.5,41.0,35.9,32.0,28.5,64,57,45,29.67,29.55,8,2,12,0.00
2012-11-2,56.8,45.3,34.2,33.9,26.7,17.5,76,50,24,29.85,29.65,14,2,20,0.00
2012-11-3,53.8,44.8,41.2,33.4,29.7,26.8,66,56,41,29.99,29.84,11,3,13,0.00
2012-11-4,55.8,43.9,36.1,38.1,32.9,29.8,82,66,45,29.99,29.86,4,0,7,0.00
2012-11-5,52.7,37.3,26.1,33.1,26.2,22.2,91,67,34,30.05,29.93,11,1,13,0.00
2012-11-6,44.8,35.9,24.3,29.8,25.4,20.4,90,67,50,30.09,29.93,4,1,6,0.00
2012-11-7,46.2,41.6,33.8,33.0,27.0,22.9,81,56,42,29.93,29.75,11,2,14,0.00
2012-11-8,58.5,46.5,36.7,24.8,14.7,4.0,51,30,13,29.99,29.81,14,3,20,0.00
2012-11-9,63.5,46.8,35.6,34.4,29.3,19.6,79,52,29,30.12,29.99,8,1,12,0.00
2012-11-10,68.0,46.1,30.0,40.2,33.5,27.0,92,66,32,30.25,30.10,5,1,7,0.00
2012-11-11,74.3,51.7,33.6,46.4,36.7,29.9,93,62,22,30.33,30.23,4,1,8,0.00
2012-11-12,63.3,58.2,51.1,59.0,53.1,42.4,95,83,67,30.30,30.00,11,1,18,0.22
2012-11-13,56.7,44.4,29.7,55.0,34.5,24.0,94,70,40,30.36,30.03,11,2,18,0.32
2012-11-14,46.4,33.6,23.9,31.4,25.5,20.4,92,73,52,30.43,30.31,8,1,12,0.00
2012-11-15,48.6,36.6,27.1,36.5,30.3,22.7,91,78,62,30.32,30.17,4,1,6,0.00
2012-11-16,54.1,39.8,28.8,39.3,29.5,22.1,94,70,30,30.33,30.17,7,1,8,0.00
2012-11-17,54.0,38.3,25.7,35.5,25.7,17.6,92,65,24,30.47,30.33,7,1,12,0.00
2012-11-18,53.2,44.7,33.3,38.5,34.9,25.6,82,69,53,30.47,30.36,8,2,11,0.00
2012-11-19,55.9,46.1,34.2,41.2,37.3,30.1,87,72,55,30.36,30.10,7,1,9,0.00
2012-11-20,54.1,41.2,31.5,42.7,35.3,29.2,97,81,58,30.11,29.95,4,0,5,0.00
2012-11-21,56.3,39.4,27.9,42.9,32.2,25.0,97,77,48,30.11,30.02,4,1,6,0.00
2012-11-22,59.4,40.0,26.6,40.0,28.5,22.3,92,67,32,30.15,30.03,4,1,7,0.00
2012-11-23,68.0,46.5,26.2,43.9,31.8,22.2,90,61,34,30.04,29.68,14,2,19,0.00
2012-11-24,46.8,36.8,30.4,25.5,16.2,9.6,53,43,25,29.98,29.76,18,4,26,0.00
2012-11-25,46.6,36.4,29.3,19.9,16.4,11.7,59,45,25,29.97,29.82,8,1,12,0.00
2012-11-26,60.8,47.5,29.3,33.6,23.6,18.5,67,42,20,30.07,29.87,7,1,8,0.00
2012-11-27,43.7,40.1,34.2,38.2,34.1,29.0,91,79,63,30.14,30.01,3,0,5,0.02
2012-11-28,50.4,42.7,34.5,38.0,25.3,15.9,95,57,26,30.20,30.12,10,2,13,0.00
2012-11-29,51.6,43.3,27.1,28.8,19.8,16.5,74,42,28,30.34,30.14,4,2,8,0.00
2012-11-30,51.8,35.9,24.8,31.1,23.2,17.9,83,62,32,30.25,30.16,4,1,6,0.00
2012-12-1,56.1,38.6,26.4,37.7,28.8,21.3,87,69,43,30.31,30.20,3,1,4,0.00
2012-12-2,66.2,45.8,28.8,48.5,38.4,25.8,94,77,49,30.28,30.05,4,1,6,0.00
2012-12-3,69.8,59.0,47.8,55.1,49.7,43.8,91,72,55,30.15,30.05,4,1,6,0.00
2012-12-4,72.9,56.4,41.9,60.0,47.2,41.4,99,75,42,30.14,29.95,4,1,6,0.00
2012-12-5,61.7,54.4,34.0,50.1,31.6,11.7,73,46,16,30.16,29.91,12,3,18,0.00
2012-12-6,45.3,34.5,25.0,28.4,24.4,20.0,86,67,48,30.26,30.09,4,1,7,0.00
2012-12-7,53.1,44.0,35.2,43.0,36.9,28.0,86,76,60,30.09,29.85,4,0,6,0.00
2012-12-8,69.6,53.4,40.3,52.6,46.7,39.4,97,80,51,29.90,29.76,8,1,12,0.00
2012-12-9,54.5,49.7,44.8,51.9,48.0,42.9,99,94,87,30.05,29.87,5,1,8,0.09
2012-12-10,64.8,54.4,46.4,62.0,52.4,45.4,99,93,80,29.87,29.50,10,1,12,0.02
2012-12-11,56.7,47.1,40.3,54.1,35.7,29.0,92,65,46,30.10,29.52,14,2,27,0.13
2012-12-12,44.8,38.8,33.8,31.9,27.5,24.3,78,64,48,30.30,30.09,6,1,8,0.00
2012-12-13,47.3,34.1,24.8,30.0,22.1,17.7,86,64,34,30.35,30.22,7,1,9,0.00
2012-12-14,59.9,36.0,20.7,34.5,20.6,12.5,86,60,18,30.22,30.09,4,1,6,0.00
2012-12-15,53.1,39.7,28.6,37.8,29.2,20.1,89,68,41,30.17,29.99,4,1,5,0.09
2012-12-16,45.9,42.1,38.5,44.0,40.8,37.7,99,95,89,29.99,29.72,7,0,9,0.05
2012-12-17,49.6,45.0,39.2,47.4,44.0,38.9,99,96,90,29.74,29.45,4,1,5,0.02
2012-12-18,57.2,47.4,39.9,45.8,37.0,28.7,99,69,43,29.71,29.45,13,2,19,0.01
2012-12-19,60.6,52.1,39.7,33.8,30.0,24.1,64,43,31,29.90,29.68,13,4,26,0.00
2012-12-20,53.6,47.4,37.6,39.0,32.7,29.9,99,61,40,29.92,29.30,5,2,8,0.85
2012-12-21,45.0,37.6,33.1,43.9,24.0,14.3,99,59,41,29.52,29.24,16,4,25,0.01
2012-12-22,44.6,37.5,34.3,19.3,13.2,2.2,53,37,21,29.93,29.51,19,5,31,0.00
2012-12-23,53.1,40.5,31.6,26.4,13.9,-0.3,58,35,19,29.95,29.79,7,2,10,0.00
2012-12-24,41.2,32.6,27.3,31.3,27.4,18.9,94,82,51,29.97,29.77,4,1,5,0.18
2012-12-25,45.3,36.0,28.4,43.9,33.6,27.4,99,91,74,30.10,29.77,6,1,8,0.06
2012-12-26,38.1,33.0,30.2,31.6,29.7,27.7,92,88,74,30.09,29.36,13,1,18,0.14
2012-12-27,43.9,36.6,31.8,33.3,24.3,18.0,90,62,46,29.94,29.37,14,3,21,0.15
2012-12-28,42.3,34.7,30.6,27.2,22.8,19.4,79,62,50,30.03,29.89,7,1,9,0.00
2012-12-29,46.0,36.9,31.3,37.6,27.0,21.6,87,69,48,29.89,27.93,17,2,23,0.07
2012-12-30,41.7,35.0,26.6,21.6,13.9,8.2,52,42,27,30.21,29.77,27,5,36,0.00
2012-12-31,45.1,37.2,26.4,21.7,13.7,1.7,58,39,16,30.19,29.97,9,1,12,0.00
2013-1-1,42.6,42.5,37.8,27.1,13.6,13.4,65,31,30,29.99,29.87,2,2,5,0.00